Location: ??????
(31.2511°N, 45.5379°E)
Time: 00:49:55
(UTC+00:00)

Daily predictions for brighter satellites

Satellite Brightness Start Highest point End
(mag) Time Altitude Azimuth Time Altitude Azimuth Time Altitude Azimuth
MSX 4.3 00:01:45 10° NNE 00:06:34 56° ENE 00:06:34 56° ENE
IDEFIX/ARIANE 42P 4.1 00:10:23 10° N 00:12:52 29° N 00:12:52 29° N
BREEZE-M DEB (TANK) 3.9 00:33:32 52° WSW 00:35:45 70° NW 00:40:08 10° NE
Cosmos 1339 Rocket 4.4 00:39:23 43° S 00:41:39 90° W 00:47:56 10° N
Cosmos 2082 4.1 00:36:54 10° NNW 00:44:14 47° S 00:48:16 10° SSE
Meteor 1-4 Rocket 4.0 00:44:03 34° ENE 00:44:03 34° ENE 00:46:51 10° NNE
Centaur D-1AR AC-48 4.1 00:42:47 13° SSE 00:44:04 14° SE 00:47:25 10° ESE
NOSS 3-3 (A) 3.7 00:47:39 60° WNW 00:47:53 61° WNW 00:53:56 10° NNE
NOSS 3-3 (C) 3.7 00:47:50 61° WNW 00:48:01 61° WNW 00:54:01 10° NNE
Cosmos 1980 Rocket 3.2 00:53:31 31° NW 00:53:31 31° NW 00:57:33 10° N
H-2A R/B 2.1 00:50:41 10° SSE 00:54:56 78° ENE 00:59:20 10° N
Meteor 1-10 Rocket 4.2 00:52:30 21° S 00:56:24 83° E 01:02:14 10° N
SJ 16-02 3.3 00:53:42 10° N 00:57:32 29° ENE 01:01:22 10° SE
Cosmos 2322 Rocket 2.9 00:53:01 14° S 00:57:43 53° ESE 01:03:14 10° NNE
PSLV R/B 3.3 00:56:05 10° N 01:00:17 78° WNW 01:00:19 78° W
ERS-2 3.3 00:57:30 10° SSE 01:00:59 44° ENE 01:04:29 10° N
CZ-2C R/B 2.4 00:58:14 10° N 01:03:24 81° WNW 01:06:11 28° SSW
SL-16 R/B 2.2 01:01:41 24° SSW 01:05:15 80° ESE 01:10:56 10° NNE
PAYLOAD A 3.7 01:00:43 10° N 01:05:21 64° WNW 01:06:14 52° SW
Cosmos 468 Rocket 4.0 01:03:03 27° SSW 01:05:59 87° ESE 01:11:18 10° NNE
Cosmos 2263 Rocket 3.4 01:03:43 10° N 01:09:05 43° ENE 01:14:27 10° SE
Meteor 1-14 Rocket 4.2 01:04:51 10° NNW 01:10:16 55° W 01:15:39 10° S
FALCON 9 DEB 3.0 01:11:23 85° NNE 01:11:23 85° NNE 01:14:44 10° NE
Cosmos 1812 3.3 01:17:10 38° NW 01:17:10 38° NW 01:20:07 10° N
SJ-6F 4.4 01:14:17 10° NNE 01:18:23 81° E 01:22:25 10° S
Cosmos 44 Rocket 4.5 01:14:44 10° S 01:19:05 40° ESE 01:23:31 10° NE
Meteor 2-6 Rocket 4.5 01:17:30 31° SW 01:19:41 46° W 01:25:10 10° N
SL-4 R/B 2.2 01:21:44 39° WSW 01:23:21 70° NW 01:28:04 10° NE
ADEOS Rocket 3.5 01:16:11 10° SSE 01:23:23 76° ENE 01:29:51 10° N
Landsat 5 3.9 01:19:13 10° S 01:23:30 44° W 01:27:50 10° NNW
USA 234 3.2 01:17:19 10° SE 01:23:51 89° SW 01:30:25 10° NW
Skynet4D Del rocket 3.9 01:21:39 31° WSW 01:24:11 57° S 01:30:19 10° ESE
Meteor 1-5 Rocket 4.0 01:24:57 10° NNW 01:30:15 71° W 01:35:40 10° S
Cosmos 1500 3.4 01:26:55 10° NNW 01:30:35 46° W 01:34:14 10° SSW
IRIDIUM 104 4.4 01:30:45 10° NNW 01:35:49 53° W 01:40:52 10° SSW
Cosmos 1666 2.8 01:32:45 10° N 01:36:34 77° E 01:40:19 10° S
ERBS 4.3 01:37:01 15° NW 01:37:01 15° NW 01:39:03 10° N
CZ-4B R/B 1.4 01:34:47 10° SSE 01:37:50 71° ENE 01:40:58 10° N
Cosmos 1898 Rocket 4.3 01:34:03 10° N 01:39:12 55° ENE 01:44:23 10° SSE
Cosmos 1153 Rocket 4.5 01:39:04 10° NNW 01:45:22 67° W 01:51:36 10° S
deb Chang Zheng 4 3.7 01:42:00 10° N 01:46:08 49° WNW 01:50:14 10° SSW
Cosmos 1707 Rocket 3.9 01:44:17 10° SSW 01:48:20 40° W 01:52:26 10° N
DELTA 4 R/B 3.8 01:37:40 16° W 01:49:06 48° SSW 01:53:18 10° SE
USA 32 4.0 01:43:59 10° N 01:49:11 67° W 01:54:23 10° S
BREEZE M DEB (TANK) 3.7 01:41:41 10° NW 01:50:16 51° NNE 01:53:23 10° ESE
ADEOS 3.7 01:45:53 10° N 01:50:55 50° WNW 01:55:56 10° SSW
CZ-4B R/B 3.3 01:48:27 10° NNE 01:52:01 57° E 01:55:32 10° S
CZ-4B R/B 4.0 01:47:51 10° N 01:52:12 72° WNW 01:56:38 10° SSW
Meteor 1-11 Rocket 3.7 01:49:19 10° NNW 01:55:02 68° W 02:00:35 10° S
SAR-Lupe-4 3.4 01:54:43 10° S 01:58:17 71° WSW 02:01:52 10° NNW
Cosmos 1000 Rocket 4.5 01:54:25 10° SSW 02:00:35 64° W 02:06:43 10° N
Meteor 1-27 Rocket 4.2 01:55:23 10° SSW 02:00:57 42° WNW 02:06:33 10° N
Okean 1 4.2 01:57:24 10° S 02:01:21 55° E 02:05:19 10° NNE
Cosmos 1814 Rocket 3.9 02:01:35 10° SSW 02:06:44 73° WNW 02:11:57 10° NNE
Cosmos 1937 Rocket 3.7 02:03:16 10° NNW 02:08:25 75° ENE 02:13:32 10° SSE
Cosmos 1743 4.0 02:05:00 10° N 02:08:39 44° E 02:12:17 10° SSE
SAR-Lupe-1 4.2 02:07:10 10° S 02:10:36 47° W 02:14:03 10° NNW
ALOS 2.8 02:08:16 10° N 02:12:34 37° WNW 02:16:50 10° SW
Cosmos 841 Rocket 3.8 02:07:39 10° SW 02:12:38 48° WNW 02:17:41 10° N
Spot 2 4.4 02:10:48 10° NNE 02:14:51 67° ESE 02:18:50 10° S
Cosmos 1733 Rocket 3.0 02:10:41 10° NNW 02:15:00 68° W 02:19:16 10° S
Cosmos 1536 3.3 02:16:15 10° NNW 02:20:02 38° W 02:23:47 10° SSW
Cosmos 1862 Rocket 4.1 02:18:04 10° SSW 02:22:08 36° W 02:26:11 10° NNW
Cosmos 1725 Rocket 4.4 02:16:06 10° N 02:22:17 72° E 02:28:26 10° SSE
Cosmos 1484 Rocket 4.2 02:21:19 10° NNW 02:24:20 21° WNW 02:27:21 10° WSW
Chandra Rocket (1) 3.9 02:15:14 10° W 02:24:56 31° SW 02:28:45 10° SSE
Cosmos 2360 Rocket 2.5 02:20:55 10° SW 02:26:19 47° WNW 02:31:47 10° N
Cosmos 2100 Rocket 4.3 02:21:08 10° NNW 02:27:13 49° W 02:33:16 10° SSW
